This is the latest recevied weather packets stored in our database for station/object WR9A-13. If no packets are shown the sender has not sent any weather packets the latest 10 day(s).
| Time | Temp. | Humidity | Pressure | Rain* | Wind** | Luminosity | Snow |
|---|---|---|---|---|---|---|---|
| 1778225131 | 10° C | 88% | 1013.1 hPa | 0 mm | - | - | - |
| 1778224829 | 10° C | 87% | 1013.3 hPa | 0 mm | - | - | - |
| 1778224517 | 10° C | 87% | 1013.5 hPa | 0 mm | - | - | - |
| 1778224234 | 10° C | 87% | 1013.5 hPa | 0 mm | - | - | - |
| 1778223922 | 10.56° C | 87% | 1013.5 hPa | 0 mm | - | - | - |
| 1778223633 | 10.56° C | 86% | 1013.5 hPa | 0 mm | - | - | - |
| 1778223321 | 10.56° C | 86% | 1013.7 hPa | 0 mm | - | - | - |
| 1778223017 | 10.56° C | 85% | 1013.8 hPa | 0 mm | - | - | - |
| 1778222725 | 10.56° C | 85% | 1013.9 hPa | 0 mm | - | - | - |
| 1778222421 | 10.56° C | 84% | 1014.1 hPa | 0 mm | - | - | - |
| 1778222137 | 11.11° C | 83% | 1014.3 hPa | 0 mm | - | - | - |
| 1778221823 | 11.11° C | 82% | 1014.5 hPa | 0 mm | - | - | - |
| 1778221537 | 11.67° C | 80% | 1014.6 hPa | 0 mm | - | - | - |
| 1778221224 | 11.67° C | 77% | 1014.2 hPa | 0 mm | - | - | - |
| 1778220941 | 11.67° C | 75% | 1013.9 hPa | 0 mm | - | - | - |
| 1778220628 | 11.67° C | 74% | 1013.6 hPa | 0 mm | - | - | - |
| 1778220327 | 11.67° C | 74% | 1013.5 hPa | 0 mm | - | - | - |
| 1778220028 | 11.67° C | 74% | 1013.5 hPa | 0 mm | - | - | - |
| 1778219725 | 11.67° C | 73% | 1013.4 hPa | 0 mm | - | - | - |
| 1778219442 | 11.67° C | 74% | 1013.6 hPa | 0 mm | - | - | - |
| 1778219130 | 11.67° C | 74% | 1013.7 hPa | 0 mm | - | - | - |
| 1778218818 | 11.67° C | 74% | 1013.6 hPa | 0 mm | - | - | - |
| 1778218513 | 11.11° C | 75% | 1013.5 hPa | 0 mm | - | - | - |
| 1778218222 | 11.11° C | 76% | 1013.6 hPa | 0 mm | - | - | - |
| 1778217918 | 11.11° C | 78% | 1013.5 hPa | 0 mm | - | - | - |
* Rain latest hour (hover to see other rain measurements)
** Current wind speed in m/s (hover to see current wind gust speed)